Weather in Kamennogorsk

Russia / Saint-Petersburg and Leningrad Oblast     60°57′02″N   29°07′51″E
temp.,
°C
wind,
m/s
gust,
m/s
humid.,
%
clouds,
%
prec.,
mm/h
press.,
hPa
HPBL,
m
7 may, fri
fri700:00+1w3692100 0.1 994474
03:00+1w3790100 0.1 995405
06:00+1wsw2693100 0.0 997373
09:00+2w2483100 0.0 998584
12:00+4wsw2475100 0.0 1000979
15:00+6w2470100 0.0 10021015
18:00+6ssw237094 0.0 1002724
21:00+3ssw248910 0.0 100493
8 may, sat
sat800:00+2s1195100 0.0 100421
03:00+3sw1195100 0.0 100433
06:00+3nw119380 0.0 100351
09:00+5nw2371100 0.0 1004510
12:00+7nw3364100 0.0 10031054
15:00+6nw4576100 0.1 1004903
18:00+6nnw4768100 0.1 10061143
21:00+3wnw2280100 0.1 100742
9 may, sun
sun900:00+1w238418 0.0 100851
03:000wnw269352 0.0 1008119
06:000w38824 0.0 1011238
09:00+6w36585 0.0 1012550
12:00+9wsw4742100 0.0 10141926
15:00+9sw585794 0.0 10141489
18:00+9ssw51161100 0.1 10141403
21:00+6ssw4116999 0.1 1015434
10 may, mon
mon1000:00+4ssw288189 0.0 1016222
03:00+4sse238299 0.0 101663
06:00+5sse31196100 1.1 1015586
09:00+7ssw41396100 1.6 1016530
12:00+11sw5138899 0.3 1017753
15:00+15sw51373100 0.3 10181026
18:00+15sw41269100 0.0 1018961
21:00+13sw4167161 0.0 1017636
11 may, tue
tue1100:00+11sw4167918 0.0 1019492
03:00+11ssw51580100 0.0 1019494
06:00+11ssw4148246 0.0 1020585
09:00+13sw51271100 0.0 1020721
12:00+16sw61160100 0.0 1020811
15:00+18sw61055100 0.0 1021949
18:00+18sw41057100 0.0 1021850
21:00+14ssw24695 0.0 102167